This is the latest recevied weather packets stored in our database for station/object K1WJY. If no packets are shown the sender has not sent any weather packets the latest 10 day(s).
| Time | Temp. | Humidity | Pressure | Rain* | Wind** | Luminosity | Snow |
|---|---|---|---|---|---|---|---|
| 1777908813 | 13.89° C | 50% | 1008.2 hPa | 0 mm | - | 459 W/m² | - |
| 1777908509 | 14.44° C | 52% | 1008.2 hPa | 0 mm | - | 613 W/m² | - |
| 1777908206 | 13.89° C | 55% | 1008.1 hPa | 0 mm | - | 695 W/m² | - |
| 1777907902 | 13.89° C | 55% | 1008.2 hPa | 0 mm | - | 466 W/m² | - |
| 1777907598 | 13.89° C | 54% | 1008.2 hPa | 0 mm | - | 606 W/m² | - |
| 1777907294 | 13.89° C | 54% | 1008.6 hPa | 0 mm | - | 720 W/m² | - |
| 1777906991 | 13.89° C | 55% | 1008.6 hPa | 0 mm | - | 714 W/m² | - |
| 1777906689 | 15° C | 53% | 1008.8 hPa | 0 mm | - | 709 W/m² | - |
| 1777906384 | 14.44° C | 53% | 1008.5 hPa | 0 mm | - | 709 W/m² | - |
| 1777906081 | 14.44° C | 50% | 1008.9 hPa | 0 mm | - | 721 W/m² | - |
| 1777905777 | 14.44° C | 51% | 1008.8 hPa | 0 mm | - | 327 W/m² | - |
| 1777905475 | 14.44° C | 52% | 1008.8 hPa | 0 mm | - | 720 W/m² | - |
| 1777905172 | 14.44° C | 49% | 1008.8 hPa | 0 mm | - | 732 W/m² | - |
| 1777904869 | 13.89° C | 50% | 1008.7 hPa | 0 mm | - | 741 W/m² | - |
| 1777904566 | 14.44° C | 51% | 1008.9 hPa | 0 mm | - | 745 W/m² | - |
| 1777904263 | 14.44° C | 53% | 1009.1 hPa | 0 mm | - | 745 W/m² | - |
| 1777903961 | 13.89° C | 52% | 1009 hPa | 0 mm | - | 749 W/m² | - |
| 1777903657 | 13.89° C | 53% | 1008.9 hPa | 0 mm | - | 758 W/m² | - |
| 1777903353 | 13.33° C | 54% | 1009.1 hPa | 0 mm | - | 789 W/m² | - |
| 1777903050 | 13.89° C | 51% | 1009.5 hPa | 0 mm | - | 314 W/m² | - |
| 1777902746 | 13.89° C | 49% | 1009.6 hPa | 0 mm | - | 796 W/m² | - |
| 1777902444 | 13.89° C | 49% | 1009.5 hPa | 0 mm | - | 731 W/m² | - |
| 1777902140 | 13.89° C | 52% | 1009.4 hPa | 0 mm | - | 715 W/m² | - |
| 1777901839 | 13.33° C | 52% | 1009.5 hPa | 0 mm | - | 717 W/m² | - |
| 1777901536 | 12.78° C | 50% | 1009.8 hPa | 0 mm | - | 502 W/m² | - |
* Rain latest hour (hover to see other rain measurements)
** Current wind speed in m/s (hover to see current wind gust speed)